TimeCDT,TemperatureF,Dew PointF,Humidity,Sea Level PressureIn,VisibilityMPH,Wind Direction,Wind SpeedMPH,Gust SpeedMPH,PrecipitationIn,Events,Conditions,WindDirDegrees,DateUTC
12:53 AM,41.0,37.9,89,30.17,10.0,Calm,Calm,-,N/A,,Clear,0,2012-10-09 05:53:00
1:53 AM,39.9,37.9,93,30.17,7.0,Calm,Calm,-,N/A,,Clear,0,2012-10-09 06:53:00
3:29 AM,39.2,37.4,93,30.16,1.8,Calm,Calm,-,N/A,,Clear,0,2012-10-09 08:29:00
3:38 AM,39.2,37.4,93,30.16,3.0,Calm,Calm,-,N/A,,Clear,0,2012-10-09 08:38:00
3:53 AM,39.0,36.0,89,30.17,10.0,Calm,Calm,-,N/A,,Clear,0,2012-10-09 08:53:00
4:53 AM,39.0,36.0,89,30.17,10.0,Calm,Calm,-,N/A,,Clear,0,2012-10-09 09:53:00
5:53 AM,37.9,35.1,89,30.17,8.0,Calm,Calm,-,N/A,,Clear,0,2012-10-09 10:53:00
6:35 AM,37.4,35.6,93,30.17,1.8,Calm,Calm,-,N/A,,Clear,0,2012-10-09 11:35:00
6:47 AM,37.4,35.6,93,30.17,3.0,Calm,Calm,-,N/A,,Clear,0,2012-10-09 11:47:00
6:53 AM,37.9,35.1,89,30.18,6.0,Calm,Calm,-,N/A,,Clear,0,2012-10-09 11:53:00
7:10 AM,37.4,35.6,93,30.18,2.5,Calm,Calm,-,N/A,,Clear,0,2012-10-09 12:10:00
7:14 AM,37.4,35.6,93,30.18,1.2,Calm,Calm,-,N/A,,Clear,0,2012-10-09 12:14:00
7:26 AM,39.2,37.4,93,30.18,3.0,Calm,Calm,-,N/A,,Clear,0,2012-10-09 12:26:00
7:53 AM,42.1,39.0,89,30.19,10.0,Calm,Calm,-,N/A,,Clear,0,2012-10-09 12:53:00
8:53 AM,48.0,43.0,83,30.19,10.0,Calm,Calm,-,N/A,,Clear,0,2012-10-09 13:53:00
9:53 AM,55.9,46.0,69,30.18,10.0,Calm,Calm,-,N/A,,Clear,0,2012-10-09 14:53:00
10:53 AM,59.0,43.0,55,30.17,10.0,South,4.6,-,N/A,,Clear,190,2012-10-09 15:53:00
11:53 AM,61.0,42.1,50,30.15,10.0,SSE,4.6,-,N/A,,Clear,160,2012-10-09 16:53:00
12:53 PM,63.0,41.0,45,30.12,10.0,South,9.2,-,N/A,,Clear,170,2012-10-09 17:53:00
1:53 PM,64.0,42.1,45,30.08,10.0,Variable,3.5,-,N/A,,Clear,0,2012-10-09 18:53:00
2:53 PM,64.9,42.1,43,30.05,10.0,SSW,5.8,-,N/A,,Clear,210,2012-10-09 19:53:00
3:53 PM,64.9,41.0,42,30.04,10.0,South,5.8,-,N/A,,Clear,170,2012-10-09 20:53:00
4:53 PM,64.0,41.0,43,30.03,10.0,South,12.7,-,N/A,,Clear,180,2012-10-09 21:53:00
5:53 PM,61.0,41.0,48,30.03,10.0,South,8.1,-,N/A,,Clear,180,2012-10-09 22:53:00
6:53 PM,57.9,41.0,53,30.03,10.0,SSE,4.6,-,N/A,,Clear,160,2012-10-09 23:53:00
7:53 PM,57.0,42.1,57,30.03,10.0,SSE,3.5,-,N/A,,Clear,160,2012-10-10 00:53:00
8:53 PM,53.1,42.1,66,30.02,10.0,SSE,5.8,-,N/A,,Clear,160,2012-10-10 01:53:00
9:53 PM,53.1,42.1,66,30.02,10.0,SSE,5.8,-,N/A,,Clear,160,2012-10-10 02:53:00
10:53 PM,51.1,43.0,74,30.03,10.0,Calm,Calm,-,N/A,,Clear,0,2012-10-10 03:53:00
11:53 PM,48.0,43.0,83,30.03,10.0,Calm,Calm,-,N/A,,Clear,0,2012-10-10 04:53:00